Location: Newark
(47.7394°N, 8.0008°E)
Time: 15:32:43
(UTC+00:00)

N. Korean satellite - Pass Details

Date: 16 December 2019
Orbit: 454 x 508 km, 97.2° (Epoch: 17 January)

Event Time Altitude Azimuth Distance (km) Brightness Sun altitude
Rises 17:46:51 0° 219° (SW) 2,594 11.1 -20.8°
Reaches altitude 10° 17:50:50 10° 263° (W) 1,708 10.5 -21.5°
Maximum altitude 17:51:25 10° 272° (W) 1,688 10.4 -21.6°
Drops below altitude 10° 17:52:01 10° 281° (W) 1,707 10.3 -21.7°
Sets 17:55:59 0° 325° (NW) 2,584 10.6 -22.3°
